EW8841 Weather Reports


time (UTC)temp
F
wind
direction
speed
knots
gust
knots
rain 1hr
in
rain 24hr
in
rain mn
in
humidity
%
barometer
mb
20260506201516 76 0.0 0.0 0.00 0.00 0.00 53 1015.3
20260506200517 77 0.0 0.0 0.00 0.00 0.00 51 1015.4
20260506195516 76 0.0 0.0 0.00 0.00 0.00 53 1015.2
20260506194517 76 0.0 0.0 0.00 0.00 0.00 53 1015.2
20260506193516 77 0.0 0.0 0.00 0.00 0.00 52 1015.4
20260506192558 77 0.0 0.0 0.00 0.00 0.00 52 1015.4
20260506191516 76 0.0 0.0 0.00 0.00 0.00 53 1015.4
20260506190517 76 0.0 0.0 0.00 0.00 0.00 54 1015.5
20260506185517 76 0.0 0.0 0.00 0.00 0.00 54 1015.5
20260506184516 75 0.0 0.0 0.00 0.00 0.00 54 1015.5
20260506183516 75 0.0 0.0 0.00 0.00 0.00 54 1015.5
20260506182516 75 0.0 0.0 0.00 0.00 0.00 54 1015.7
20260506181516 76 0.0 0.0 0.00 0.00 0.00 53 1015.7
20260506180516 76 0.0 0.0 0.00 0.00 0.00 53 1015.7
20260506175516 76 0.0 0.0 0.00 0.00 0.00 50 1015.9
20260506174516 75 0.0 0.0 0.00 0.00 0.00 51 1015.9
20260506173516 74 0.0 0.0 0.00 0.00 0.00 53 1015.9
20260506172516 73 0.0 0.0 0.00 0.00 0.00 54 1016.0
20260506171516 72 0.0 0.0 0.00 0.00 0.00 57 1016.0
20260506170516 71 0.0 0.0 0.00 0.00 0.00 60 1016.0
20260506165516 69 0.0 0.0 0.00 0.00 0.00 63 1016.0
20260506164516 67 0.0 0.0 0.00 0.00 0.00 65 1016.0
20260506163516 66 0.0 0.0 0.00 0.00 0.00 67 1016.0
20260506162516 65 0.0 0.0 0.00 0.00 0.00 70 1016.1
20260506161516 63 0.0 0.0 0.00 0.00 0.00 75 1016.0
20260506160515 62 0.0 0.0 0.00 0.00 0.00 78 1016.0
20260506155516 60 0.0 0.0 0.00 0.00 0.00 80 1016.2
20260506154516 59 0.0 0.0 0.00 0.00 0.00 82 1016.2
20260506153516 58 0.0 0.0 0.00 0.00 0.00 85 1016.4
20260506152515 57 0.0 0.0 0.00 0.00 0.00 87 1016.5
20260506151516 55 0.0 0.0 0.00 0.00 0.00 89 1016.5
20260506150515 55 0.0 0.0 0.00 0.00 0.00 90 1016.5
20260506145536 54 0.0 0.0 0.00 0.00 0.00 90 1016.6
20260506144516 53 0.0 0.0 0.00 0.00 0.00 91 1016.5
20260506143515 53 0.0 0.0 0.00 0.00 0.00 91 1016.4
20260506142515 52 0.0 0.0 0.00 0.00 0.00 90 1016.2
20260506141518 51 0.0 0.0 0.00 0.00 0.00 90 1016.2
20260506140518 51 0.0 0.0 0.00 0.00 0.00 90 1016.0
20260506135518 51 0.0 0.0 0.00 0.00 0.00 90 1016.0
20260506134538 51 0.0 0.0 0.00 0.00 0.00 90 1016.0
20260506133517 51 0.0 0.0 0.00 0.00 0.00 89 1016.0
20260506132517 51 0.0 0.0 0.00 0.00 0.00 89 1015.9
20260506131558 51 0.0 0.0 0.00 0.00 0.00 89 1015.9
20260506130537 51 0.0 0.0 0.00 0.00 0.00 89 1015.7
20260506125558 51 0.0 0.0 0.00 0.00 0.00 89 1015.5
20260506124517 51 0.0 0.0 0.00 0.00 0.00 89 1015.5
20260506123517 51 0.0 0.0 0.00 0.00 0.00 89 1015.5
20260506122517 51 0.0 0.0 0.00 0.00 0.00 89 1015.5
20260506121518 51 0.0 0.0 0.00 0.00 0.00 89 1015.5
20260506120517 51 0.0 0.0 0.00 0.00 0.00 89 1015.5
20260506115538 51 0.0 0.0 0.00 0.00 0.00 88 1015.5
20260506114538 51 0.0 0.0 0.00 0.00 0.00 88 1015.5
20260506113517 51 0.0 0.0 0.00 0.00 0.00 88 1015.6
20260506112517 51 0.0 0.0 0.00 0.00 0.00 88 1015.5
20260506111517 51 0.0 0.0 0.00 0.00 0.00 88 1015.5
20260506110517 52 0.0 0.0 0.00 0.00 0.00 88 1015.5
20260506105517 52 0.0 0.0 0.00 0.00 0.00 87 1015.5
20260506104518 52 0.0 0.0 0.00 0.00 0.00 87 1015.5
20260506103517 52 0.0 0.0 0.00 0.00 0.00 87 1015.5
20260506102517 52 0.0 0.0 0.00 0.00 0.00 87 1015.5
20260506101518 53 0.0 0.0 0.00 0.00 0.00 87 1015.5
20260506100537 53 0.0 0.0 0.00 0.00 0.00 87 1015.4
20260506095518 53 0.0 0.0 0.00 0.00 0.00 87 1015.4
20260506094517 53 0.0 0.0 0.00 0.00 0.00 87 1015.4
20260506093517 53 0.0 0.0 0.00 0.00 0.00 87 1015.3
20260506092517 54 0.0 0.0 0.00 0.00 0.00 86 1015.5
20260506091518 54 0.0 0.0 0.00 0.00 0.00 86 1015.5
20260506090516 54 0.0 0.0 0.00 0.00 0.00 86 1015.5
20260506085517 55 0.0 0.0 0.00 0.00 0.00 85 1015.6
20260506084516 55 0.0 0.0 0.00 0.00 0.00 85 1015.6
20260506083516 55 0.0 0.0 0.00 0.00 0.00 84 1015.6
20260506082517 56 0.0 0.0 0.00 0.00 0.00 84 1015.7
20260506081517 56 0.0 0.0 0.00 0.00 0.00 84 1015.7
20260506080517 56 0.0 0.0 0.00 0.00 0.00 84 1015.7
20260506073517 57 0.0 0.0 0.00 0.00 0.00 84 1015.6
20260506072517 57 0.0 0.0 0.00 0.00 0.00 83 1015.5
20260506071537 57 0.0 0.0 0.00 0.00 0.00 83 1015.5
20260506070517 57 0.0 0.0 0.00 0.00 0.00 82 1015.4
20260506062517 58 0.0 0.0 0.00 0.00 0.00 82 1015.1
20260506061518 58 0.0 0.0 0.00 0.00 0.00 81 1015.1
20260506060517 58 0.0 0.0 0.00 0.00 0.00 81 1015.0
20260506050517 59 0.0 0.0 0.00 0.00 0.00 80 1014.8
20260506044557 59 0.0 0.0 0.00 0.00 0.00 80 1014.6
20260506043517 59 0.0 0.0 0.00 0.00 0.00 80 1014.4
20260506042518 59 0.0 0.0 0.00 0.00 0.00 81 1014.3
20260506041516 59 0.0 0.0 0.00 0.00 0.00 80 1014.3
20260506040517 59 0.0 0.0 0.00 0.00 0.00 80 1013.9
20260506035517 59 0.0 0.0 0.00 0.00 0.00 80 1013.9
20260506034516 59 0.0 0.0 0.00 0.00 0.00 79 1013.9
20260506033516 60 0.0 0.0 0.00 0.00 0.00 79 1013.7
20260506032517 60 0.0 0.0 0.00 0.00 0.00 78 1013.4
20260506031516 60 0.0 0.0 0.00 0.00 0.00 78 1013.4
20260506030518 60 0.0 0.0 0.00 0.00 0.00 78 1013.1
20260506025516 60 0.0 0.0 0.00 0.00 0.00 77 1012.9
20260506024517 60 0.0 0.0 0.00 0.00 0.00 77 1012.9
20260506023516 60 0.0 0.0 0.00 0.00 0.00 77 1012.9
20260506022516 60 0.0 0.0 0.00 0.00 0.00 76 1012.7
20260506021517 61 0.0 0.0 0.00 0.00 0.00 75 1012.8
20260506020537 61 0.0 0.0 0.00 0.00 0.00 74 1012.7
20260506015516 61 0.0 0.0 0.00 0.00 0.00 74 1012.7
20260506014516 61 0.0 0.0 0.00 0.00 0.00 73 1012.7
20260506013518 62 0.0 0.0 0.00 0.00 0.00 71 1012.5
20260506012516 62 0.0 0.0 0.00 0.00 0.00 69 1012.4
20260506011517 63 0.0 0.0 0.00 0.00 0.00 67 1012.4
20260506010516 64 0.0 0.0 0.00 0.00 0.00 64 1012.5
20260506005516 65 0.0 0.0 0.00 0.00 0.00 63 1012.5
20260506004516 65 0.0 0.0 0.00 0.00 0.00 63 1012.5
20260506003517 65 0.0 0.0 0.00 0.00 0.00 63 1012.3
20260506002516 66 0.0 0.0 0.00 0.00 0.00 61 1012.3
20260506001516 66 0.0 0.0 0.00 0.00 0.00 60 1012.3
20260506000537 67 0.0 0.0 0.00 0.00 0.00 60 1012.3
20260505235536 67 0.0 0.0 0.00 0.00 0.00 61 1012.3
20260505234516 68 0.0 0.0 0.00 0.00 0.00 61 1012.4
20260505233516 68 0.0 0.0 0.00 0.00 0.00 60 1012.3
20260505232516 69 0.0 0.0 0.00 0.00 0.00 59 1012.3
20260505231518 70 0.0 0.0 0.00 0.00 0.00 58 1012.3
20260505230516 70 0.0 0.0 0.00 0.00 0.00 56 1012.4
20260505225516 70 0.0 0.0 0.00 0.00 0.00 56 1012.4
20260505224516 70 0.0 0.0 0.00 0.00 0.00 57 1012.4
20260505223516 70 0.0 0.0 0.00 0.00 0.00 55 1012.5
20260505222517 71 0.0 0.0 0.00 0.00 0.00 54 1012.8
20260505221516 70 0.0 0.0 0.00 0.00 0.00 54 1012.8
20260505220515 69 0.0 0.0 0.00 0.00 0.00 56 1012.8
20260505215516 69 0.0 0.0 0.00 0.00 0.00 57 1013.0
20260505214516 68 0.0 0.0 0.00 0.00 0.00 57 1013.0
20260505213516 68 0.0 0.0 0.00 0.00 0.00 57 1013.3
20260505212516 68 0.0 0.0 0.00 0.00 0.00 57 1013.4
20260505211516 68 0.0 0.0 0.00 0.00 0.00 57 1013.4
20260505210515 68 0.0 0.0 0.00 0.00 0.00 56 1013.3
20260505205515 68 0.0 0.0 0.00 0.00 0.00 56 1013.4
20260505204515 69 0.0 0.0 0.00 0.00 0.00 53 1013.4
20260505203519 68 0.0 0.0 0.00 0.00 0.00 55 1013.4
20260505202517 68 0.0 0.0 0.00 0.00 0.00 56 1013.4